Presure
163 158 141 171 170 173 122 156 167 111 102 121 94 113 120 121 145 173 144 122 103 97 95 97 95 90 88 87 86 88 86 85 91 85 89 87 85 96 90 90 89 110 206
84 114 145 121 148 169 159 150 172 162 126 108 108 94 110 122 129 127 131 140 159 98 95 95 94 87 91 90 89 89 97 90 94 90 87 84 87 88 86 93 129 114 175
139 92 95 143 192 102 192 193 150 158 145 129 117 113 94 137 117 184 129 144 176 141 150 154 94 95 93 93 93 90 97 90 92 86 90 94 91 91 87 99 113 84 93
149 142 132 89 188 102 102 116 200 184 108 176 111 173 114 107 108 124 127 131 147 136 119 107 159 97 96 94 96 92 93 89 95 92 90 93 90 102 95 86 163 106 132
248 220 240 207 90 180 134 107 112 119 182 124 163 149 89 110 101 104 131 127 132 135 136 168 137 147 91 97 96 97 104 91 91 90 93 88 92 91 97 90 123 131 113
220 227 225 237 186 95 149 99 108 103 109 198 212 189 122 89 89 94 110 130 131 159 181 179 198 168 156 149 92 97 101 96 91 90 87 93 91 94 89 126 133 130 109
164 241 241 241 154 228 95 145 198 188 106 193 200 113 167 122 107 116 92 101 126 174 150 178 139 136 136 137 168 143 158 91 90 89 90 89 89 94 94 128 128 144 146
330 319 206 158 252 219 97 207 152 147 214 158 138 186 172 122 122 178 110 115 108 117 153 152 183 175 132 153 152 159 161 160 163 114 95 94 95 183 184 192 183 151 187
275 308 311 319 264 191 158 206 101 227 212 178 146 110 147 192 122 176 112 126 116 167 115 128 166 186 151 169 178 136 156 169 190 180 173 173 160 130 111 112 159 124 180
171 163 172 300 300 204 219 163 193 100 181 221 199 106 133 149 171 173 117 148 101 110 119 121 123 173 140 160 158 153 153 168 167 176 172 185 220 211 195 179 185 190 184
133 131 132 127 149 295 307 234 231 89 143 231 104 103 198 107 106 161 116 108 107 113 117 115 121 179 178 130 161 159 166 141 137 179 155 164 141 187 210 190 183 188 197
276 275 134 133 148 195 301 308 229 204 133 152 219 103 105 106 193 151 121 179 115 108 113 115 118 121 121 123 127 134 155 158 164 136 135 145 203 152 138 194 189 152 171
153 276 209 274 275 127 183 259 196 239 229 127 171 209 130 102 224 109 111 136 111 109 108 108 109 114 122 120 120 122 138 184 152 162 152 152 198 189 207 168 191 181 137
279 280 285 295 307 299 304 311 305 231 133 221 210 225 195 101 100 131 162 192 111 108 104 105 107 110 119 118 119 120 166 125 154 153 155 137 147 178 206 200 196 198 192
271 277 283 295 304 314 325 333 314 313 262 136 207 99 183 213 104 130 161 166 193 112 120 114 114 110 114 120 115 119 118 122 126 143 151 158 142 136 211 206 210 193 191
282 293 296 419 591 592 432 376 336 310 303 216 155 102 215 177 219 104 100 108 144 108 125 113 181 139 125 176 118 119 125 125 120 125 144 155 156 183 199 141 212 203 202
298 554 564 561 572 580 578 597 614 507 323 244 241 229 192 205 215 176 198 109 107 102 178 105 121 129 150 158 160 160 169 167 158 136 183 155 151 142 153 212 202 206 203
536 531 556 554 575 573 593 604 618 625 344 331 238 239 184 97 219 200 191 169 110 210 102 104 110 133 135 160 161 159 162 151 175 170 139 143 180 156 198 133 203 204 203
503 529 519 525 552 584 589 598 610 640 633 334 129 221 221 202 196 234 134 173 219 211 105 201 108 109 115 118 116 166 160 130 128 132 132 139 172 142 150 184 195 207 182
483 545 542 552 564 590 597 604 621 584 672 379 344 221 238 201 225 220 170 213 161 205 159 107 97 123 110 111 131 157 131 163 158 151 127 167 134 178 149 186 161 171 170
490 479 460 564 570 572 600 617 643 656 555 384 319 228 237 221 228 117 165 214 172 104 201 191 172 107 124 108 111 126 116 119 114 123 118 176 153 180 177 202 122 142 130
436 447 448 429 523 556 611 619 663 564 523 303 334 221 200 204 177 221 142 211 208 154 193 209 187 187 195 168 117 107 108 110 115 115 115 119 164 172 137 196 181 183 123
418 453 515 503 520 568 590 572 518 486 404 291 297 301 227 207 180 208 149 129 205 203 128 208 178 188 142 168 160 198 122 112 114 111 125 133 171 145 121 146 119 118 124
407 424 481 457 508 556 431 412 377 450 405 311 260 213 215 209 203 168 201 193 163 119 176 184 190 146 151 187 112 105 97 113 163 182 109 112 121 149 189 124 196 124 145
389 403 486 447 386 346 326 390 338 310 260 307 293 226 203 195 214 204 162 195 192 184 195 205 193 177 155 188 167 176 175 177 109 160 155 113 122 173 182 171 191 186 185
379 397 445 352 393 323 303 291 296 244 287 270 276 206 187 197 212 201 200 164 179 205 206 204 205 195 190 152 194 199 171 170 111 110 161 110 116 191 189 180 192 194 189
Wind_Speed
93 73 70 88 84 72 58 65 68 50 44 45 35 39 39 38 41 44 33 35 41 34 30 30 27 21 17 14 13 12 9 7 11 7 9 10 11 14 13 13 13 19 30
44 56 71 61 72 83 78 67 78 70 56 48 45 36 40 43 42 39 39 34 32 36 32 29 29 18 23 21 18 16 18 15 15 13 10 9 10 13 13 19 18 19 26
74 54 50 77 110 53 112 111 71 74 67 60 52 49 36 47 43 54 41 39 43 33 31 28 30 30 27 24 24 19 23 16 17 13 16 15 14 15 12 19 17 16 18
86 81 75 50 101 56 56 61 106 92 57 85 54 68 49 42 42 42 42 42 38 35 34 32 31 35 32 27 30 25 23 17 21 19 19 20 16 22 19 12 20 18 21
99 103 102 90 55 95 72 61 61 64 86 64 82 70 37 48 40 41 45 44 42 39 37 37 32 27 27 32 31 32 36 22 21 21 24 18 22 20 22 15 24 24 17
102 98 98 98 94 61 84 60 64 62 63 93 97 88 57 42 40 39 44 47 45 45 44 42 40 35 35 28 28 33 37 31 25 24 19 26 23 26 17 25 25 26 22
88 107 104 102 93 101 64 81 100 96 66 90 94 59 84 59 51 52 40 42 47 57 44 46 37 33 35 32 29 30 29 30 28 26 27 24 24 29 25 25 27 25 23
82 86 97 89 106 103 64 107 89 82 109 84 73 87 90 59 59 71 53 52 47 43 48 45 45 40 36 33 35 32 31 25 29 32 35 33 31 23 23 21 17 24 20
83 82 84 87 110 95 95 107 67 116 109 92 78 62 76 84 66 77 56 55 48 62 44 43 45 42 43 36 32 34 34 27 24 23 28 24 24 26 23 25 23 29 18
86 74 86 90 91 104 107 95 102 65 97 116 100 65 75 71 86 81 59 62 47 48 46 44 44 46 41 43 37 36 36 29 29 23 27 24 23 24 24 26 23 21 18
86 78 79 74 82 99 101 114 114 62 84 124 69 66 100 64 64 74 59 55 51 50 49 49 47 50 45 40 45 41 37 36 34 27 28 33 29 26 26 25 26 24 23
86 88 85 81 85 86 104 106 117 121 83 91 119 70 66 66 97 80 64 84 56 50 49 49 49 48 46 42 39 41 43 39 38 35 32 32 26 29 28 25 27 28 25
97 95 95 101 102 81 87 100 89 124 124 78 94 116 81 69 107 76 60 69 57 49 51 50 50 48 48 45 44 41 41 36 41 39 38 35 28 28 22 28 27 28 31
89 96 101 105 109 111 112 113 114 121 79 123 121 130 106 73 70 83 80 85 59 52 53 57 54 54 54 49 47 43 45 44 48 43 40 36 37 27 25 28 26 27 26
97 105 106 105 105 105 110 114 115 116 134 76 120 79 97 111 78 83 87 85 92 58 62 61 56 55 54 53 48 47 45 47 41 43 43 43 38 36 26 25 29 27 28
101 100 102 91 69 71 96 108 116 118 124 116 86 74 118 95 115 77 65 67 77 61 69 59 79 63 57 52 55 51 50 49 42 44 46 48 45 32 28 39 29 29 31
95 63 61 64 65 69 72 73 70 89 123 135 136 133 113 112 115 96 102 74 65 62 84 55 64 64 59 58 59 59 55 53 49 50 43 51 48 44 37 28 26 29 32
47 48 47 48 47 55 56 59 62 66 124 124 131 139 104 78 120 109 102 87 73 97 63 58 62 65 65 63 62 62 57 58 52 53 53 52 45 51 31 44 29 27 30
45 45 45 44 42 44 49 53 58 65 78 126 61 127 130 113 112 127 76 87 112 99 69 93 67 64 62 63 60 65 61 56 53 50 52 55 44 51 50 34 33 27 31
45 41 37 33 28 31 39 46 54 66 64 115 118 124 139 116 125 114 99 111 86 96 85 73 66 70 67 63 63 66 60 66 62 61 49 55 56 49 56 36 40 39 39
38 33 30 30 27 25 23 32 41 50 90 109 119 127 136 126 132 84 94 107 93 72 96 92 89 71 73 67 68 66 58 55 52 52 50 53 59 47 37 35 53 49 52
32 35 30 19 26 25 22 27 33 74 87 116 113 126 119 118 92 125 89 111 103 86 96 95 94 94 89 85 66 62 59 57 57 52 50 54 56 49 57 44 41 39 54
25 29 17 20 15 20 20 32 63 71 83 109 118 118 127 118 105 116 91 85 108 106 85 96 96 99 81 86 86 84 68 62 60 51 58 68 56 61 59 53 55 57 58
21 24 16 3 17 16 48 51 60 79 79 105 126 118 124 125 117 91 108 105 98 80 98 98 99 80 87 88 69 68 60 69 66 64 72 75 67 68 56 59 51 64 55
13 20 22 12 51 55 50 65 70 73 109 88 105 125 125 120 127 120 94 113 109 103 111 104 101 96 83 96 83 86 80 77 68 74 73 71 72 67 60 57 55 55 53
5 9 10 38 56 66 68 76 73 103 101 110 100 122 119 125 134 126 123 98 98 118 113 111 103 102 99 80 90 86 84 79 70 72 75 74 72 68 62 64 61 58 56
Wind_Direction
254 247 247 255 255 247 236 245 250 229 225 236 226 220 222 218 242 258 233 223 213 215 215 213 212 212 219 229 233 249 256 267 266 275 300 315 331 331 341 343 349 339 25
231 239 243 237 246 252 250 238 250 238 235 225 227 226 219 222 226 225 230 231 244 219 221 220 219 218 225 229 243 248 251 259 265 271 280 302 313 321 337 330 326 331 8
242 235 234 246 254 229 258 259 240 238 241 233 228 226 225 230 224 253 229 238 252 234 241 246 227 228 229 233 244 249 257 257 262 276 286 290 295 302 322 321 342 334 331
243 241 241 227 250 230 230 233 255 250 231 248 230 242 225 223 227 221 228 233 231 234 232 232 248 230 235 237 242 250 254 261 269 275 284 291 294 298 304 320 338 325 325
247 248 244 237 223 244 237 232 230 230 247 236 241 239 228 224 228 228 231 231 234 235 235 244 241 247 239 240 244 248 255 257 266 274 276 283 291 298 302 307 312 314 326
250 246 245 243 241 226 239 229 231 230 230 248 247 245 229 230 231 229 229 233 233 242 248 247 269 243 248 249 246 246 250 254 260 268 274 283 288 293 297 300 310 308 324
246 251 250 246 242 240 225 237 242 244 230 242 245 233 241 229 226 230 232 232 232 246 238 247 237 241 251 252 251 257 261 257 263 267 274 277 284 290 296 292 298 317 326
256 253 243 246 242 239 234 240 238 237 243 239 236 239 237 232 229 237 227 230 232 233 238 240 242 240 247 254 250 253 259 266 273 268 269 275 278 297 311 314 324 310 331
256 252 248 246 240 242 241 238 228 239 240 236 234 231 235 237 229 231 229 231 230 238 232 236 241 246 245 241 255 255 255 263 308 299 288 306 281 277 282 287 296 290 321
249 248 248 245 242 235 236 240 232 231 237 238 234 229 234 223 234 231 231 233 232 235 235 235 240 239 241 244 250 249 253 258 261 286 287 316 301 289 298 295 303 305 311
249 248 248 244 249 239 239 231 228 230 232 235 228 231 233 233 237 235 233 230 230 232 235 237 239 241 234 245 242 245 246 258 261 284 274 275 274 279 284 293 297 302 301
260 256 247 248 248 243 237 237 228 229 233 229 233 229 229 231 234 236 234 231 230 229 234 236 239 242 245 244 247 251 250 251 257 260 262 269 308 278 277 286 291 291 298
253 256 251 249 244 240 238 236 238 224 223 233 232 231 230 229 232 240 234 233 234 229 234 238 241 244 246 245 246 249 252 267 256 258 263 269 311 280 284 277 284 287 287
262 259 256 253 251 245 239 236 229 223 226 222 223 229 229 229 233 234 232 230 237 232 233 237 240 243 245 245 247 249 255 255 255 257 261 264 269 290 291 275 279 284 287
262 259 258 257 254 249 245 242 232 228 220 226 224 223 230 231 230 232 231 229 227 238 236 238 240 244 247 247 248 249 248 252 255 258 260 265 266 269 293 283 274 278 285
269 268 265 266 268 263 248 240 233 225 224 218 231 233 226 231 230 228 229 235 228 238 239 239 234 239 244 239 246 247 247 250 252 255 258 261 266 281 294 273 278 275 274
279 278 274 269 267 261 256 253 247 230 220 214 213 217 223 223 227 228 227 232 229 230 231 235 241 240 230 232 237 240 246 244 253 253 276 260 263 264 273 287 279 278 275
288 286 288 279 273 264 258 249 241 232 217 215 212 214 229 230 224 225 227 229 229 227 231 234 240 238 240 236 240 240 244 244 260 255 255 258 275 265 287 267 283 279 279
300 302 295 291 278 266 254 245 237 231 217 211 226 218 219 224 222 224 224 226 226 226 230 230 238 240 241 244 244 243 243 247 248 251 253 257 271 260 263 277 281 277 275
309 309 311 300 285 269 254 244 238 223 233 203 206 213 211 225 219 220 220 223 228 224 231 231 229 232 240 242 242 241 244 249 252 250 251 253 259 271 263 276 271 272 272
330 324 301 311 305 288 266 249 240 233 191 196 201 210 208 215 217 226 222 223 229 228 225 228 230 234 237 237 241 245 245 245 246 249 251 260 254 268 268 272 267 269 272
326 320 310 277 304 300 281 251 234 196 185 198 200 209 220 219 226 217 224 222 225 234 222 229 229 232 235 235 236 239 244 244 246 247 254 256 262 264 259 270 265 265 273
332 340 345 340 318 304 275 208 181 174 183 195 197 199 209 217 225 215 222 228 225 227 232 227 230 231 234 234 238 235 244 246 246 248 253 250 262 260 259 263 265 269 269
338 345 348 236 312 292 153 157 167 165 170 189 199 204 207 214 218 225 218 221 227 231 230 226 228 232 234 235 237 239 242 248 248 253 245 251 256 255 264 262 266 266 267
3 341 340 170 135 142 154 138 150 167 190 186 195 198 208 218 213 218 222 223 225 227 228 227 225 232 235 233 236 239 245 245 247 244 246 254 256 258 260 260 264 264 263
9 352 310 151 149 158 164 165 168 190 185 187 192 202 217 215 211 217 219 222 231 226 228 230 228 230 233 234 238 240 242 241 246 249 248 251 255 257 259 259 262 263 264